This demonstration page uses our WeatherBlox Daily Observations layout. Learn more.

Left ArrowRight Arrow

34.02893, -84.19858

Hourly Observations for July 21, 2018

Temp ( °F °C ) Dew Point ( °F °C ) Humidity (%) Winds ( mph kmh ) Pressure ( in mb ) Visibility ( mi km ) Precip ( " mm )
12:53 am 00:53 Clear 72 22.2 70 21.1 94 94 Calm 29.91 1013 10 16 0.00 0.00
1:53 am 01:53 Mostly Cloudy 73 22.8 70 21.1 90 90 SSE 3 6 29.91 1013 10 16 0.00 0.00
2:53 am 02:53 Partly Cloudy 73 22.8 70 21.1 90 90 SSE 3 6 29.88 1012 10 16 0.00 0.00
3:53 am 03:53 Partly Cloudy 73 22.8 69 20.6 87 87 SSE 3 6 29.86 1011 10 16 0.00 0.00
4:53 am 04:53 Cloudy 74 23.3 69 20.6 85 85 S 5 7 29.84 1011 10 16 0.00 0.00
5:53 am 05:53 Cloudy 74 23.3 69 20.6 85 85 S 10 17 29.82 1010 10 16 0.00 0.00
6:21 am 06:21 Mostly Cloudy with Nearby Thunderstorms 74 23.3 69 20.6 85 85 S 10 17 29.80 1009 10 16 0.00 0.00
6:29 am 06:29 Mostly Cloudy with Thunderstorms 75 23.9 69 20.6 82 82 NNW 22 35 29.88 1012 10 16 0.00 0.00
6:35 am 06:35 Mostly Cloudy with Thunderstorms 70 21.1 67 19.4 90 90 NNW 25 41 29.94 1014 2 3 0.14 3.56
6:38 am 06:38 Mostly Cloudy with Strong Thunderstorms 67 19.4 66 18.9 97 97 N 23 37 29.91 1013 1 1 0.42 10.67
6:41 am 06:41 Cloudy with Strong Thunderstorms 66 18.9 65 18.3 96 96 NNW 15 24 29.88 1012 1 1 0.63 16.00
6:47 am 06:47 Cloudy with Strong Thunderstorms 64 18 64 18 100 100 NW 6 9 29.88 1012 1 1 0.82 20.83
6:48 am 06:48 Cloudy with Strong Thunderstorms 64 18 64 18 100 100 WNW 6 9 29.88 1012 1 1 0.84 21.34
6:53 am 06:53 Cloudy with Strong Thunderstorms 66 18.9 65 18.3 96 96 W 9 15 29.89 1012 2 2 0.88 22.35
6:58 am 06:58 Cloudy with Thunderstorms 66 18.9 65 18.3 96 96 W 12 19 29.91 1013 3 5 0.00 0.03
7:27 am 07:27 Cloudy with Nearby Thunderstorms 68 20 66 18.9 93 93 NNW 10 17 29.91 1013 10 16 0.02 0.51
7:38 am 07:38 Cloudy with Thunderstorms 68 20 67 19.4 96 96 N 3 6 29.91 1013 6 10 0.03 0.76
7:53 am 07:53 Cloudy with Thunderstorms 69 20.6 67 19.4 93 93 N 9 15 29.89 1012 10 16 0.03 0.76
7:56 am 07:56 Mostly Cloudy with Nearby Thunderstorms 69 20.6 67 19.4 93 93 N 8 13 29.91 1013 10 16 0.00 0.03
8:04 am 08:04 Mostly Cloudy with Nearby Thunderstorms 69 20.6 67 19.4 93 93 NNW 6 9 29.94 1014 10 16 0.00 0.03
8:13 am 08:13 Cloudy with Thunderstorms 69 20.6 68 20 96 96 Calm 29.94 1014 10 16 0.01 0.25
8:28 am 08:28 Cloudy with Rain 69 20.6 68 20 96 96 VRB 7 11 29.91 1013 4 6 0.03 0.76
8:53 am 08:53 Mostly Cloudy 70 21.1 68 20 93 93 VRB 3 6 29.90 1013 10 16 0.03 0.76
9:11 am 09:11 Partly Cloudy 70 21.1 69 20.6 97 97 VRB 3 6 29.91 1013 9 14 0.00 0.00
9:30 am 09:30 Mostly Sunny 72 22.2 69 20.6 91 91 Calm 29.88 1012 10 16 0.00 0.00
9:53 am 09:53 Mostly Sunny 73 22.8 69 20.6 87 87 Calm 29.87 1012 10 16 0.00 0.00
10:10 am 10:10 Mostly Cloudy 73 22.8 69 20.6 87 87 SSE 7 11 29.91 1013 10 16 0.00 0.00
10:36 am 10:36 Partly Cloudy 74 23.3 69 20.6 85 85 SSE 6 9 29.91 1013 10 16 0.00 0.00
10:53 am 10:53 Mostly Sunny 75 23.9 69 20.6 82 82 S 5 7 29.88 1012 10 16 0.00 0.00
11:07 am 11:07 Mostly Cloudy 75 23.9 69 20.6 82 82 S 9 15 29.88 1012 10 16 0.00 0.00
11:30 am 11:30 Partly Cloudy 76 24.4 69 20.6 79 79 SW 6 9 29.88 1012 10 16 0.00 0.00
11:53 am 11:53 Mostly Sunny 78 25.6 68 20 71 71 Calm 29.88 1012 10 16 0.00 0.00
12:53 pm 12:53 Sunny 81 27.2 71 21.7 72 72 SSW 10 17 29.85 1011 10 16 0.00 0.00
1:53 pm 13:53 Mostly Sunny 82 27.8 71 21.7 69 69 SSW 10 17 29.82 1010 10 16 0.00 0.00
2:53 pm 14:53 Sunny 84 28.9 71 21.7 65 65 S 8 13 29.79 1009 10 16 0.00 0.00
3:53 pm 15:53 Mostly Sunny 88 31.1 72 22.2 59 59 WSW 9 15 29.78 1008 10 16 0.00 0.00
4:53 pm 16:53 Mostly Sunny 88 31.1 71 21.7 57 57 W 9 15 29.78 1008 10 16 0.00 0.00
5:53 pm 17:53 Mostly Sunny 87 30.6 71 21.7 59 59 SW 9 15 29.75 1008 10 16 0.00 0.00
6:53 pm 18:53 Sunny 85 29.4 72 22.2 65 65 SW 12 19 29.75 1007 10 16 0.00 0.00
7:16 pm 19:16 Partly Cloudy with Nearby Thunderstorms 84 28.9 72 22.2 67 67 SW 14 22 29.74 1007 10 16 0.00 0.00
7:32 pm 19:32 Mostly Cloudy with Thunderstorms 82 27.8 73 22.8 74 74 VRB 7 11 29.74 1007 5 8 0.01 0.25
7:53 pm 19:53 Cloudy with Thunderstorms 80 26.7 69 20.6 69 69 WSW 8 13 29.75 1008 10 16 0.02 0.51
8:19 pm 20:19 Partly Cloudy with Nearby Thunderstorms 76 24.4 72 22.2 88 88 VRB 3 6 29.77 1008 10 16 0.00 0.00
8:31 pm 20:31 Mostly Cloudy 76 24.4 72 22.2 88 88 SE 5 7 29.74 1007 10 16 0.00 0.00
8:53 pm 20:53 Mostly Clear with Nearby Thunderstorms 75 23.9 71 21.7 88 88 SSE 6 9 29.75 1008 10 16 0.00 0.00
9:13 pm 21:13 Clear 75 23.9 71 21.7 88 88 Calm 29.74 1007 10 16 0.00 0.00
9:26 pm 21:26 Clear with Nearby Thunderstorms 78 25.6 71 21.7 79 79 WSW 9 15 29.77 1008 10 16 0.00 0.00
9:41 pm 21:41 Mostly Clear 78 25.6 71 21.7 79 79 WSW 7 11 29.77 1008 10 16 0.00 0.00
9:53 pm 21:53 Partly Cloudy 78 25.6 72 22.2 82 82 WNW 7 11 29.79 1009 10 16 0.00 0.00
10:53 pm 22:53 Clear 76 24.4 71 21.7 85 85 W 9 15 29.78 1008 10 16 0.00 0.00
11:53 pm 23:53 Clear 75 23.9 70 21.1 84 84 WSW 10 17 29.79 1009 10 16 0.00 0.00

Powered by AerisWeather